パンスターズ彗星

C/2017 K5 ( PanSTARRS )

English version
Home page
Updated on October 8, 2017

---------------------------------------------------------------------

・ プロフィール

発見日 2017年5月27日
発見光度 22.0等
発見者 Pan-STARRS 1 telescope (Haleakala)

・ 写真集

・ 軌道要素

Epoch 2020 Mar. 12.0 TT = JDT 2458920.5
T 2020 Mar. 25.65733 TT                                 MPCW
q   7.7037919            (2000.0)            P               Q
z  +0.0012491      Peri.  171.58501     +0.19496831     +0.16290847
 +/-0.0004622      Node   102.51585     -0.94766093     +0.28549140
e   0.9903770      Incl.   82.19217     -0.25283616     -0.94443395
From 21 observations 2017 May 27-July 22, mean residual 0".3.

・ 光度変化

        m1 = 6.0 + 5 logΔ + 10.0 log r

---------------------------------------------------------------------

軌道要素はM.P.E.C. 2017-T14に掲載されたものです。
光度グラフはComet for Windowsで作成したものです。

---------------------------------------------------------------------

Copyright(C) Seiichi Yoshida (comet@aerith.net). All rights reserved.